Hourly Data Report for April 14, 2017

MIRAMICHI RCS
NEW BRUNSWICK

47°00'34.000" N
65°27'54.000" W
33.00 m
8100989
71744
ACQ

Download Data

Hourly Data (April 2017)
Hourly Data Report for April 14, 2017
TIME
LST
Temp Definition
°C
Dew Point Definition
°C
Rel Hum Definition
%
Precip. Amount Definition
mm

Wind Dir Definition
10's deg

Wind Spd Definition
km/h
Visibility Definition
km
Stn Press Definition
kPa
Hmdx Definition


Wind Chill Definition


Weather Definition


00:00 2.3 -0.5 81 0.0 28 4   101.70     LegendNANA
01:00 0.3 -1.1 90 0.0 27 7   101.74     LegendNANA
02:00 0.4 -1.3 88 0.0 30 9   101.74     LegendNANA
03:00 0.9 -1.0 87 0.0 30 7   101.75     LegendNANA
04:00 -0.1 -2.4 84 0.0 27 5   101.78   -2 LegendNANA
05:00 -1.3 -2.2 94 0.0 26 3   101.84   -2 LegendNANA
06:00 -0.9 -1.8 94 0.0 27 4   101.89   -2 LegendNANA
07:00 1.0 -0.7 88 0.0 26 4   101.94     LegendNANA
08:00 3.8 0.4 78 0.0 24 6   101.98     LegendNANA
09:00 6.5 0.1 63 0.0 31 5   101.99     LegendNANA
10:00 7.9 -0.4 56 0.0 36 7   102.01     LegendNANA
11:00 8.8 -1.0 50 0.0 25 12   101.97     LegendNANA
12:00 9.3 -1.6 47 0.0 30 13   101.92     LegendNANA
13:00 9.5 -4.7 36 0.0 31 17   101.89     LegendNANA
14:00 10.3 -8.7 25 0.0 31 17   101.85     LegendNANA
15:00 10.8 -8.4 25 0.0 31 15   101.81     LegendNANA
16:00 11.1 -6.8 28 0.0 31 14   101.80     LegendNANA
17:00 10.8 -8.4 25 0.0 30 17   101.80     LegendNANA
18:00 10.3 -7.1 29 0.0 31 10   101.81     LegendNANA
19:00 9.0 -7.0 32 0.0 31 5   101.84     LegendNANA
20:00 5.2 -3.7 53 0.0 25 5   101.90     LegendNANA
21:00 3.8 -4.1 56 0.0 23 3   101.86     LegendNANA
22:00 4.8 -4.6 51 0.0 27 6   101.82     LegendNANA
23:00 4.0 -4.3 55 0.0 27 8   101.79     LegendNANA

Notes on Data Quality.

Legend

  • E = Estimated
  • M = Missing
  • NA = Not Available*
  • [empty] = Indicates an unobserved value
Date modified: